Location: ??????
(41.3164°N, 22.6615°E)
Time: 21:49:13
(UTC+00:00)

NOSS 3-1 (C) - Pass Details

Date: 16 October 2021
Orbit: 717 x 1491 km, 63.4° (Epoch: 25 November)

Event Time Altitude Azimuth Distance (km) Brightness Sun altitude
Rises 16:54:04 0° 170° (S) 3,131 6.1 -13.4°
Reaches altitude 10° 16:56:56 10° 152° (SSE) 2,261 5.2 -13.9°
Enters shadow 17:00:06 19° 114° (ESE) 1,800 4.4 -14.5°
